GW0655 Weather Reports


Display with metric or nautical units.
time (UTC)temp
F
wind
direction
speed
MPH
gust
MPH
rain 1hr
in
rain 24hr
in
rain mn
in
humidity
%
barometer
mb
20220117105828 31 329 1.0 1.0 0.00 0.00 0.00 78 1021.0
20220117105329 32 329 0.0 0.0 0.00 0.00 0.00 77 1020.7
20220117104827 32 329 0.0 0.0 0.00 0.00 0.00 76 1020.7
20220117104327 32 329 0.0 0.0 0.00 0.00 0.00 76 1020.7
20220117103825 32 329 0.0 0.0 0.00 0.00 0.00 76 1020.4
20220117103324 32 329 0.0 1.0 0.00 0.00 0.00 75 1020.7
20220117102823 33 329 0.0 0.0 0.00 0.00 0.00 75 1020.7
20220117102322 33 329 0.0 0.0 0.00 0.00 0.00 73 1020.7
20220117101821 33 329 0.0 0.0 0.00 0.00 0.00 73 1020.7
20220117101320 33 329 0.0 0.0 0.00 0.00 0.00 73 1020.7
20220117100819 33 329 1.0 1.0 0.00 0.00 0.00 74 1020.7
20220117100318 35 329 0.0 0.0 0.00 0.00 0.00 71 1020.7
20220117095816 34 329 1.0 1.0 0.00 0.00 0.00 71 1020.7
20220117095316 33 329 1.0 1.0 0.00 0.00 0.00 73 1020.4
20220117094815 32 329 1.0 1.0 0.00 0.00 0.00 77 1020.7
20220117094314 34 329 0.0 0.0 0.00 0.00 0.00 73 1020.4
20220117093813 34 329 0.0 0.0 0.00 0.00 0.00 73 1020.7
20220117093312 33 329 0.0 0.0 0.00 0.00 0.00 75 1020.7
20220117092811 33 329 1.0 1.0 0.00 0.00 0.00 76 1020.4
20220117092311 33 329 0.0 0.0 0.00 0.00 0.00 75 1020.4
20220117091809 33 329 0.0 1.0 0.00 0.00 0.00 74 1020.4
20220117091308 35 329 0.0 0.0 0.00 0.00 0.00 72 1020.4
20220117090808 34 329 0.0 0.0 0.00 0.00 0.00 73 1020.4
20220117090306 34 329 0.0 0.0 0.00 0.00 0.00 72 1020.4
20220117085805 35 329 0.0 1.0 0.00 0.00 0.00 70 1020.7
20220117085305 34 329 0.0 1.0 0.00 0.00 0.00 71 1020.4
20220117084804 33 329 1.0 1.0 0.00 0.00 0.00 73 1020.4
20220117084303 33 331 0.0 0.0 0.00 0.00 0.00 74 1020.4
20220117083802 33 26 3.0 3.0 0.00 0.00 0.00 73 1020.0
20220117083301 33 144 0.0 0.0 0.00 0.00 0.00 72 1020.0
20220117082800 33 144 0.0 0.0 0.00 0.00 0.00 73 1020.0
20220117082259 33 144 0.0 0.0 0.00 0.00 0.00 73 1020.0
20220117081755 33 144 0.0 0.0 0.00 0.00 0.00 73 1020.0
20220117081255 35 144 1.0 1.0 0.00 0.00 0.00 71 1019.7
20220117080754 35 144 0.0 1.0 0.00 0.00 0.00 71 1019.7
20220117080253 35 144 0.0 0.0 0.00 0.00 0.00 70 1019.7
20220117075752 35 144 0.0 0.0 0.00 0.00 0.00 69 1020.0
20220117075251 35 144 0.0 0.0 0.00 0.00 0.00 68 1019.7
20220117074751 35 144 0.0 0.0 0.00 0.00 0.00 68 1019.7
20220117074250 36 144 0.0 1.0 0.00 0.00 0.00 67 1019.7
20220117073749 36 144 0.0 0.0 0.00 0.00 0.00 67 1019.3
20220117073247 36 144 0.0 0.0 0.00 0.00 0.00 65 1019.7
20220117072746 36 143 0.0 0.0 0.00 0.00 0.00 63 1019.7
20220117072245 37 144 0.0 0.0 0.00 0.00 0.00 62 1019.7
20220117071744 37 144 0.0 0.0 0.00 0.00 0.00 61 1019.7
20220117071241 37 143 0.0 1.0 0.00 0.00 0.00 60 1019.3
20220117070739 37 143 0.0 0.0 0.00 0.00 0.00 60 1019.3
20220117070237 36 143 0.0 0.0 0.00 0.00 0.00 63 1019.3
20220117065737 35 143 0.0 0.0 0.00 0.00 0.00 66 1019.3
20220117065236 36 143 0.0 0.0 0.00 0.00 0.00 65 1019.3
20220117064736 35 143 0.0 0.0 0.00 0.00 0.00 66 1019.3
20220117064235 36 143 0.0 0.0 0.00 0.00 0.00 64 1019.0
20220117063734 37 143 0.0 0.0 0.00 0.00 0.00 61 1019.3
20220117063233 37 143 0.0 0.0 0.00 0.00 0.00 61 1019.0
20220117062733 38 143 0.0 0.0 0.00 0.00 0.00 59 1019.3
20220117062231 37 142 0.0 0.0 0.00 0.00 0.00 59 1019.0
20220117061730 37 142 0.0 0.0 0.00 0.00 0.00 61 1019.3
20220117061229 36 142 0.0 0.0 0.00 0.00 0.00 61 1019.3
20220117060727 37 142 0.0 0.0 0.00 0.00 0.00 62 1019.3
20220117060226 37 142 0.0 0.0 0.00 0.00 0.00 61 1019.3
20220117055725 37 142 0.0 0.0 0.00 0.00 0.00 60 1019.0
20220117055225 38 142 0.0 0.0 0.00 0.00 0.00 61 1019.0
20220117054724 38 142 0.0 0.0 0.00 0.00 0.00 59 1019.0
20220117054223 38 142 0.0 0.0 0.00 0.00 0.00 59 1019.3
20220117053722 38 142 0.0 0.0 0.00 0.00 0.00 58 1019.0
20220117053221 37 142 0.0 0.0 0.00 0.00 0.00 60 1019.0
20220117052720 38 142 0.0 0.0 0.00 0.00 0.00 57 1019.3
20220117052219 38 142 0.0 0.0 0.00 0.00 0.00 57 1019.3
20220117051718 38 142 0.0 0.0 0.00 0.00 0.00 56 1019.3
20220117051216 39 142 0.0 0.0 0.00 0.00 0.00 56 1019.0
20220117050716 39 142 0.0 0.0 0.00 0.00 0.00 54 1019.3
20220117050215 39 142 0.0 0.0 0.00 0.00 0.00 53 1019.3
20220117045712 39 142 0.0 0.0 0.00 0.00 0.00 54 1019.0
20220117045210 39 142 0.0 0.0 0.00 0.00 0.00 54 1019.0
20220117044709 39 142 0.0 0.0 0.00 0.00 0.00 53 1019.0
20220117044208 39 142 0.0 0.0 0.00 0.00 0.00 54 1019.0
20220117043706 40 142 0.0 0.0 0.00 0.00 0.00 54 1019.3
20220117043205 40 142 0.0 0.0 0.00 0.00 0.00 54 1019.3
20220117042704 40 142 0.0 0.0 0.00 0.00 0.00 54 1019.0
20220117042203 40 142 0.0 0.0 0.00 0.00 0.00 50 1019.0
20220117041702 41 142 0.0 0.0 0.00 0.00 0.00 50 1019.0
20220117041200 42 142 0.0 0.0 0.00 0.00 0.00 47 1019.0
20220117040659 42 142 0.0 0.0 0.00 0.00 0.00 46 1019.0
20220117040159 42 142 0.0 0.0 0.00 0.00 0.00 47 1019.0
20220117035658 43 142 0.0 0.0 0.00 0.00 0.00 47 1019.0
20220117035158 44 142 0.0 0.0 0.00 0.00 0.00 46 1019.0
20220117034657 45 142 0.0 0.0 0.00 0.00 0.00 46 1019.0
20220117034156 45 142 0.0 1.0 0.00 0.00 0.00 45 1018.7
20220117033655 45 142 0.0 0.0 0.00 0.00 0.00 44 1018.7
20220117033154 45 142 1.0 1.0 0.00 0.00 0.00 44 1019.0
20220117032653 46 142 0.0 1.0 0.00 0.00 0.00 44 1018.7
20220117032150 46 142 0.0 1.0 0.00 0.00 0.00 43 1018.7
20220117031648 46 142 0.0 0.0 0.00 0.00 0.00 43 1019.0
20220117031147 46 142 0.0 0.0 0.00 0.00 0.00 43 1019.0
20220117030645 45 142 0.0 0.0 0.00 0.00 0.00 43 1019.0
20220117030144 46 142 0.0 0.0 0.00 0.00 0.00 42 1019.0
20220117025643 45 142 0.0 0.0 0.00 0.00 0.00 41 1019.0
20220117025141 46 142 0.0 0.0 0.00 0.00 0.00 41 1018.7
20220117024640 46 142 0.0 0.0 0.00 0.00 0.00 41 1018.7
20220117024140 46 142 0.0 0.0 0.00 0.00 0.00 41 1018.7
20220117023639 46 142 0.0 0.0 0.00 0.00 0.00 41 1018.7
20220117023138 45 142 0.0 0.0 0.00 0.00 0.00 41 1018.7
20220117022636 46 142 0.0 0.0 0.00 0.00 0.00 41 1018.7
20220117022134 46 142 0.0 0.0 0.00 0.00 0.00 42 1018.7
20220117021633 46 142 0.0 0.0 0.00 0.00 0.00 41 1018.7
20220117021132 46 142 0.0 0.0 0.00 0.00 0.00 41 1018.7
20220117020631 47 142 0.0 0.0 0.00 0.00 0.00 40 1018.7
20220117020130 48 142 0.0 0.0 0.00 0.00 0.00 39 1018.7
20220117015630 48 142 0.0 0.0 0.00 0.00 0.00 38 1018.3
20220117015129 48 142 0.0 0.0 0.00 0.00 0.00 38 1018.3
20220117014629 48 142 0.0 0.0 0.00 0.00 0.00 38 1018.3
20220117014128 48 142 0.0 0.0 0.00 0.00 0.00 39 1018.3
20220117013628 49 142 0.0 0.0 0.00 0.00 0.00 37 1018.3
20220117013126 49 142 0.0 0.0 0.00 0.00 0.00 37 1018.0
20220117012625 49 142 0.0 0.0 0.00 0.00 0.00 37 1018.3
20220117012124 49 142 0.0 0.0 0.00 0.00 0.00 37 1018.0
20220117011623 49 142 0.0 0.0 0.00 0.00 0.00 37 1018.0
20220117011122 50 142 0.0 0.0 0.00 0.00 0.00 36 1018.0
20220117010622 50 142 0.0 0.0 0.00 0.00 0.00 36 1018.0
20220117010120 50 142 0.0 0.0 0.00 0.00 0.00 35 1018.0
20220117005619 50 142 0.0 1.0 0.00 0.00 0.00 35 1018.0
20220117005118 51 142 0.0 0.0 0.00 0.00 0.00 36 1018.0
20220117004616 51 142 0.0 0.0 0.00 0.00 0.00 36 1017.2
20220117004115 51 142 0.0 0.0 0.00 0.00 0.00 35 1017.2
20220117003615 51 141 0.0 0.0 0.00 0.00 0.00 34 1017.2
20220117003114 52 141 0.0 0.0 0.00 0.00 0.00 34 1017.2
20220117002612 53 132 0.0 0.0 0.00 0.00 0.00 33 1017.5
20220117002113 53 131 0.0 0.0 0.00 0.00 0.00 34 1017.2
20220117001612 54 113 0.0 0.0 0.00 0.00 0.00 35 1017.2
20220117001111 55 113 0.0 0.0 0.00 0.00 0.00 31 1016.9
20220117000610 55 119 0.0 1.0 0.00 0.00 0.00 30 1016.9
20220117000109 56 121 0.0 0.0 0.00 0.00 0.00 30 1017.2
20220116235609 57 121 0.0 0.0 0.00 0.00 0.00 29 1017.5
20220116235108 57 122 1.0 1.0 0.00 0.00 0.00 28 1017.5
20220116234609 57 148 0.0 0.0 0.00 0.00 0.00 28 1017.5
20220116234107 58 154 1.0 1.0 0.00 0.00 0.00 28 1017.5
20220116233606 59 159 0.0 1.0 0.00 0.00 0.00 27 1017.5
20220116233105 59 127 2.0 2.0 0.00 0.00 0.00 26 1018.0
20220116232604 59 71 1.0 1.0 0.00 0.00 0.00 26 1018.0
20220116232103 60 74 1.0 1.0 0.00 0.00 0.00 25 1017.5
20220116231602 60 69 1.0 1.0 0.00 0.00 0.00 25 1018.0
20220116231101 60 61 0.0 1.0 0.00 0.00 0.00 25 1017.5
20220116230600 60 86 0.0 1.0 0.00 0.00 0.00 25 1017.5
20220116230100 61 157 2.0 2.0 0.00 0.00 0.00 24 1018.0
20220116225558 61 37 0.0 1.0 0.00 0.00 0.00 24 1017.5
20220116225058 62 116 3.0 3.0 0.00 0.00 0.00 24 1017.5
20220116224557 62 118 1.0 1.0 0.00 0.00 0.00 23 1017.5
20220116224056 62 131 3.0 3.0 0.00 0.00 0.00 24 1017.5
20220116223555 63 196 1.0 1.0 0.00 0.00 0.00 23 1017.5
20220116223054 62 182 1.0 1.0 0.00 0.00 0.00 24 1017.5
20220116222552 62 72 0.0 1.0 0.00 0.00 0.00 23 1017.5
20220116222051 62 125 1.0 2.0 0.00 0.00 0.00 23 1018.0
20220116221551 64 186 2.0 2.0 0.00 0.00 0.00 22 1017.5
20220116221050 63 240 0.0 1.0 0.00 0.00 0.00 22 1017.5
20220116220549 62 175 1.0 1.0 0.00 0.00 0.00 23 1017.5
20220116220047 62 185 1.0 1.0 0.00 0.00 0.00 23 1018.0
20220116215546 62 195 2.0 2.0 0.00 0.00 0.00 23 1018.0
20220116215044 62 172 2.0 2.0 0.00 0.00 0.00 23 1017.5
20220116214540 62 184 3.0 3.0 0.00 0.00 0.00 22 1017.5
20220116214039 61 200 3.0 3.0 0.00 0.00 0.00 23 1018.0
20220116213538 62 301 2.0 2.0 0.00 0.00 0.00 23 1018.0
20220116213037 62 206 1.0 1.0 0.00 0.00 0.00 23 1018.0
20220116212536 60 208 2.0 3.0 0.00 0.00 0.00 24 1018.0
20220116212035 60 339 2.0 2.0 0.00 0.00 0.00 25 1018.3
20220116211535 61 359 3.0 5.0 0.00 0.00 0.00 23 1018.3
20220116211034 61 243 2.0 2.0 0.00 0.00 0.00 22 1018.3
20220116210533 61 201 3.0 3.0 0.00 0.00 0.00 22 1018.7
20220116210031 61 190 1.0 1.0 0.00 0.00 0.00 23 1018.7
20220116205530 61 303 1.0 1.0 0.00 0.00 0.00 23 1018.7
20220116205030 60 223 1.0 1.0 0.00 0.00 0.00 25 1018.7
20220116204528 60 317 3.0 3.0 0.00 0.00 0.00 25 1019.0
20220116204027 60 307 1.0 1.0 0.00 0.00 0.00 25 1018.7
20220116203526 59 313 1.0 2.0 0.00 0.00 0.00 26 1018.7
20220116203025 60 344 3.0 3.0 0.00 0.00 0.00 26 1019.0
20220116202524 59 274 0.0 1.0 0.00 0.00 0.00 28 1019.3
20220116202024 59 156 1.0 2.0 0.00 0.00 0.00 28 1019.3
20220116201523 59 302 3.0 3.0 0.00 0.00 0.00 28 1019.3
20220116201023 59 300 3.0 5.0 0.00 0.00 0.00 27 1019.3
20220116200522 59 193 2.0 3.0 0.00 0.00 0.00 28 1019.3
20220116200024 58 273 3.0 6.0 0.00 0.00 0.00 29 1019.3
20220116195521 58 226 3.0 5.0 0.00 0.00 0.00 28 1019.7
20220116195021 58 288 1.0 2.0 0.00 0.00 0.00 29 1019.3
20220116194519 57 261 2.0 2.0 0.00 0.00 0.00 31 1019.7
20220116194020 58 183 2.0 3.0 0.00 0.00 0.00 30 1019.7
20220116193518 57 308 1.0 2.0 0.00 0.00 0.00 30 1019.7
20220116193015 57 229 1.0 1.0 0.00 0.00 0.00 30 1020.0
20220116192514 57 296 2.0 2.0 0.00 0.00 0.00 31 1020.0
20220116192014 57 253 0.0 0.0 0.00 0.00 0.00 32 1020.4
20220116191512 55 265 1.0 2.0 0.00 0.00 0.00 31 1020.7
20220116191010 55 220 1.0 1.0 0.00 0.00 0.00 34 1020.4
20220116190507 54 171 2.0 3.0 0.00 0.00 0.00 33 1020.7
20220116190007 55 151 2.0 3.0 0.00 0.00 0.00 33 1020.7
20220116185504 56 299 2.0 3.0 0.00 0.00 0.00 33 1021.0
20220116185004 55 232 2.0 3.0 0.00 0.00 0.00 32 1021.4
20220116184503 54 139 4.0 6.0 0.00 0.00 0.00 34 1021.4
20220116184002 55 317 3.0 3.0 0.00 0.00 0.00 31 1021.4
20220116183501 55 246 3.0 3.0 0.00 0.00 0.00 30 1021.7
20220116183000 55 224 0.0 1.0 0.00 0.00 0.00 30 1021.7
20220116182459 54 288 0.0 1.0 0.00 0.00 0.00 33 1021.7
20220116181958 54 14 4.0 6.0 0.00 0.00 0.00 31 1021.7
20220116181455 55 316 3.0 3.0 0.00 0.00 0.00 31 1022.1
20220116180954 54 218 0.0 1.0 0.00 0.00 0.00 33 1022.1
20220116180452 53 209 1.0 1.0 0.00 0.00 0.00 35 1022.1
20220116175953 53 351 2.0 3.0 0.00 0.00 0.00 33 1022.4
20220116175451 53 0 5.0 6.0 0.00 0.00 0.00 34 1022.7
20220116174950 53 287 1.0 1.0 0.00 0.00 0.00 36 1022.7
20220116174448 51 255 1.0 1.0 0.00 0.00 0.00 39 1022.7
20220116173947 51 2 4.0 5.0 0.00 0.00 0.00 39 1022.7
20220116173447 50 340 2.0 2.0 0.00 0.00 0.00 38 1023.1
20220116172946 50 331 3.0 3.0 0.00 0.00 0.00 38 1023.1
20220116172445 50 2 3.0 5.0 0.00 0.00 0.00 40 1023.4
20220116171944 50 267 3.0 3.0 0.00 0.00 0.00 40 1023.4
20220116171443 50 311 1.0 1.0 0.00 0.00 0.00 40 1023.7
20220116170942 49 298 1.0 2.0 0.00 0.00 0.00 42 1023.1
20220116170441 49 300 3.0 5.0 0.00 0.00 0.00 41 1023.4
20220116165940 49 355 2.0 2.0 0.00 0.00 0.00 43 1023.4
20220116165440 48 357 3.0 3.0 0.00 0.00 0.00 43 1023.4
20220116164937 47 7 4.0 5.0 0.00 0.00 0.00 43 1023.7
20220116164435 47 6 6.0 7.0 0.00 0.00 0.00 45 1023.7
20220116163935 47 348 4.0 5.0 0.00 0.00 0.00 45 1023.4
20220116163434 46 221 2.0 2.0 0.00 0.00 0.00 46 1023.7
20220116162932 46 348 4.0 6.0 0.00 0.00 0.00 47 1023.7
20220116162431 46 1 4.0 5.0 0.00 0.00 0.00 46 1023.7
20220116161929 45 311 4.0 5.0 0.00 0.00 0.00 45 1023.4
20220116161427 45 315 4.0 6.0 0.00 0.00 0.00 46 1023.7
20220116160926 44 339 5.0 6.0 0.00 0.00 0.00 47 1023.7
20220116160424 44 331 3.0 3.0 0.00 0.00 0.00 47 1024.1
20220116155925 43 359 5.0 6.0 0.00 0.00 0.00 48 1024.1
20220116155424 43 358 4.0 5.0 0.00 0.00 0.00 47 1024.1
20220116154923 42 18 3.0 5.0 0.00 0.00 0.00 48 1024.1
20220116154422 42 17 3.0 5.0 0.00 0.00 0.00 48 1023.7
20220116153921 42 301 2.0 2.0 0.00 0.00 0.00 49 1024.1
20220116153420 41 25 4.0 5.0 0.00 0.00 0.00 49 1024.1
20220116152919 41 318 5.0 7.0 0.00 0.00 0.00 49 1024.1
20220116152418 41 338 6.0 7.0 0.00 0.00 0.00 48 1024.1
20220116151917 41 336 4.0 8.0 0.00 0.00 0.00 48 1024.1
20220116151416 41 317 2.0 3.0 0.00 0.00 0.00 49 1024.1
20220116150915 40 305 4.0 5.0 0.00 0.00 0.00 49 1024.1
20220116150414 40 340 4.0 6.0 0.00 0.00 0.00 50 1024.5
20220116145913 40 305 2.0 2.0 0.00 0.00 0.00 50 1023.7
20220116145410 40 11 3.0 3.0 0.00 0.00 0.00 51 1024.1
20220116144909 39 5 2.0 2.0 0.00 0.00 0.00 52 1024.1
20220116144408 38 301 1.0 1.0 0.00 0.00 0.00 53 1024.1
20220116143906 38 337 4.0 5.0 0.00 0.00 0.00 54 1024.1
20220116143404 38 324 3.0 3.0 0.00 0.00 0.00 55 1024.1
20220116142903 38 317 1.0 2.0 0.00 0.00 0.00 57 1024.1
20220116142401 37 306 1.0 1.0 0.00 0.00 0.00 58 1024.1
20220116141900 37 324 1.0 1.0 0.00 0.00 0.00 59 1023.7
20220116141400 36 296 1.0 1.0 0.00 0.00 0.00 60 1024.1
20220116140859 36 301 1.0 2.0 0.00 0.00 0.00 61 1023.7
20220116140359 35 351 2.0 3.0 0.00 0.00 0.00 62 1024.1
20220116135857 35 291 1.0 1.0 0.00 0.00 0.00 63 1023.7
20220116135356 34 289 0.0 1.0 0.00 0.00 0.00 64 1024.1
20220116134855 33 234 1.0 1.0 0.00 0.00 0.00 64 1024.1
20220116134354 33 283 0.0 1.0 0.00 0.00 0.00 65 1023.7
20220116133852 33 280 0.0 0.0 0.00 0.00 0.00 65 1023.7
20220116133350 33 301 0.0 1.0 0.00 0.00 0.00 66 1023.7
20220116132848 33 298 0.0 0.0 0.00 0.00 0.00 65 1023.4
20220116132347 33 299 0.0 0.0 0.00 0.00 0.00 65 1023.4
20220116131845 33 299 1.0 2.0 0.00 0.00 0.00 64 1023.4
20220116131344 33 288 0.0 1.0 0.00 0.00 0.00 64 1023.4
20220116130842 33 302 3.0 3.0 0.00 0.00 0.00 66 1023.1
20220116130342 33 290 0.0 0.0 0.00 0.00 0.00 65 1023.4
20220116125839 33 296 0.0 0.0 0.00 0.00 0.00 65 1023.1
20220116125338 33 324 1.0 2.0 0.00 0.00 0.00 65 1023.1
20220116124838 33 295 2.0 2.0 0.00 0.00 0.00 65 1023.1
20220116124337 33 295 1.0 1.0 0.00 0.00 0.00 65 1023.4
20220116123836 33 278 0.0 0.0 0.00 0.00 0.00 65 1023.1
20220116123335 33 302 0.0 0.0 0.00 0.00 0.00 64 1023.1
20220116122834 33 303 0.0 1.0 0.00 0.00 0.00 64 1023.1
20220116122334 33 303 1.0 1.0 0.00 0.00 0.00 64 1023.1
20220116121833 33 307 0.0 0.0 0.00 0.00 0.00 64 1023.1
20220116121332 33 299 0.0 0.0 0.00 0.00 0.00 64 1022.7
20220116120831 33 302 0.0 1.0 0.00 0.00 0.00 63 1022.4
20220116120331 33 293 1.0 1.0 0.00 0.00 0.00 64 1022.7
20220116115830 34 292 0.0 0.0 0.00 0.00 0.00 63 1022.7
20220116115330 34 300 0.0 1.0 0.00 0.00 0.00 62 1022.7
20220116114828 34 301 1.0 1.0 0.00 0.00 0.00 62 1023.1
20220116114327 34 283 1.0 2.0 0.00 0.00 0.00 62 1023.1
20220116113825 34 277 0.0 0.0 0.00 0.00 0.00 62 1022.7
20220116113324 34 275 0.0 0.0 0.00 0.00 0.00 62 1022.7
20220116112823 35 262 1.0 1.0 0.00 0.00 0.00 61 1022.7
20220116112323 35 273 0.0 0.0 0.00 0.00 0.00 60 1023.1
20220116111822 35 282 0.0 0.0 0.00 0.00 0.00 60 1022.7
20220116111320 36 281 0.0 0.0 0.00 0.00 0.00 59 1023.1
20220116110819 36 302 1.0 1.0 0.00 0.00 0.00 58 1022.7
20220116110318 36 346 2.0 2.0 0.00 0.00 0.00 58 1023.1